| time (UTC) | temp F | wind direction | speed MPH | gust MPH | rain 1hr in | rain 24hr in | rain mn in | humidity % | barometer mb |
| 20260905114916 | 73 | 149 | 0.0 | 0.0 | 0.00 | 0.00 | 0.00 | 97 | 1014.5 |
| 20260905114410 | 73 | 151 | 0.0 | 0.0 | 0.00 | 0.00 | 0.00 | 97 | 1014.3 |
| 20260905113904 | 73 | 151 | 0.0 | 0.0 | 0.00 | 0.00 | 0.00 | 97 | 1014.2 |
| 20260905113359 | 73 | 151 | 0.0 | 0.0 | 0.00 | 0.00 | 0.00 | 97 | 1014.4 |
| 20260905112855 | 73 | 144 | 0.0 | 0.0 | 0.00 | 0.00 | 0.00 | 97 | 1014.1 |
| 20260905112350 | 73 | 140 | 0.0 | 0.0 | 0.00 | 0.00 | 0.00 | 97 | 1014.1 |
| 20260905111844 | 73 | 139 | 0.0 | 0.0 | 0.00 | 0.00 | 0.00 | 97 | 1014.1 |
| 20260905111339 | 73 | 152 | 0.0 | 0.0 | 0.00 | 0.00 | 0.00 | 97 | 1014.3 |
| 20260905110838 | 73 | 149 | 0.0 | 0.0 | 0.00 | 0.00 | 0.00 | 97 | 1014.2 |
| 20260905110332 | 73 | 144 | 0.0 | 0.0 | 0.00 | 0.00 | 0.00 | 97 | 1014.2 |
| 20260905105828 | 74 | 147 | 0.0 | 0.0 | 0.00 | 0.00 | 0.00 | 97 | 1014.2 |
| 20260905105327 | 74 | 146 | 0.0 | 0.0 | 0.00 | 0.00 | 0.00 | 97 | 1014.1 |
| 20260905104826 | 74 | 148 | 0.0 | 0.0 | 0.00 | 0.00 | 0.00 | 97 | 1014.2 |
| 20260905104323 | 73 | 148 | 0.0 | 0.0 | 0.00 | 0.00 | 0.00 | 96 | 1014.1 |
| 20260905103822 | 74 | 148 | 0.0 | 0.0 | 0.00 | 0.00 | 0.00 | 96 | 1014.2 |
| 20260905103318 | 74 | 145 | 0.0 | 0.0 | 0.00 | 0.00 | 0.00 | 96 | 1013.8 |
| 20260905102814 | 74 | 147 | 0.0 | 0.0 | 0.00 | 0.00 | 0.00 | 96 | 1013.9 |
| 20260905102310 | 74 | 145 | 0.0 | 0.0 | 0.00 | 0.00 | 0.00 | 96 | 1013.8 |
| 20260905101810 | 74 | 147 | 0.0 | 0.0 | 0.00 | 0.00 | 0.00 | 96 | 1013.9 |
| 20260905101308 | 74 | 146 | 0.0 | 0.0 | 0.00 | 0.00 | 0.00 | 96 | 1013.9 |
| 20260905100803 | 74 | 146 | 0.0 | 0.0 | 0.00 | 0.00 | 0.00 | 96 | 1013.9 |
| 20260905100300 | 74 | 146 | 0.0 | 0.0 | 0.00 | 0.00 | 0.00 | 96 | 1013.9 |
| 20260905095759 | 74 | 145 | 0.0 | 0.0 | 0.00 | 0.00 | 0.00 | 96 | 1014.1 |
| 20260905095258 | 74 | 142 | 0.0 | 0.0 | 0.00 | 0.00 | 0.00 | 96 | 1013.9 |
| 20260905094753 | 74 | 143 | 0.0 | 0.0 | 0.00 | 0.00 | 0.00 | 96 | 1014.1 |
| 20260905094249 | 74 | 137 | 0.0 | 0.0 | 0.00 | 0.00 | 0.00 | 96 | 1014.1 |
| 20260905093748 | 75 | 142 | 0.0 | 0.0 | 0.00 | 0.00 | 0.00 | 95 | 1014.0 |
| 20260905093244 | 75 | 142 | 0.0 | 0.0 | 0.00 | 0.00 | 0.00 | 95 | 1014.0 |
| 20260905092739 | 75 | 146 | 0.0 | 0.0 | 0.00 | 0.00 | 0.00 | 95 | 1014.0 |
| 20260905092235 | 75 | 140 | 0.0 | 0.0 | 0.00 | 0.00 | 0.00 | 95 | 1013.8 |
| 20260905091734 | 75 | 138 | 0.0 | 0.0 | 0.00 | 0.00 | 0.00 | 95 | 1014.0 |
| 20260905091229 | 75 | 145 | 0.0 | 0.0 | 0.00 | 0.00 | 0.00 | 94 | 1014.2 |
| 20260905090728 | 75 | 144 | 0.0 | 0.0 | 0.00 | 0.00 | 0.00 | 94 | 1014.0 |
| 20260905090224 | 75 | 147 | 0.0 | 0.0 | 0.00 | 0.00 | 0.00 | 94 | 1014.0 |
| 20260905085723 | 75 | 148 | 0.0 | 0.0 | 0.00 | 0.00 | 0.00 | 94 | 1014.0 |
| 20260905085218 | 75 | 148 | 0.0 | 0.0 | 0.00 | 0.00 | 0.00 | 95 | 1014.1 |
| 20260905084718 | 75 | 151 | 0.0 | 0.0 | 0.00 | 0.00 | 0.00 | 95 | 1013.9 |
| 20260905084218 | 75 | 153 | 0.0 | 0.0 | 0.00 | 0.00 | 0.00 | 94 | 1013.9 |
| 20260905083714 | 74 | 153 | 0.0 | 0.0 | 0.00 | 0.00 | 0.00 | 93 | 1013.8 |
| 20260905083209 | 75 | 153 | 0.0 | 0.0 | 0.00 | 0.00 | 0.00 | 93 | 1013.8 |
| 20260905082705 | 75 | 153 | 0.0 | 0.0 | 0.00 | 0.00 | 0.00 | 93 | 1013.8 |
| 20260905082201 | 75 | 153 | 0.0 | 0.0 | 0.00 | 0.00 | 0.00 | 93 | 1014.0 |
| 20260905081700 | 76 | 157 | 0.0 | 0.0 | 0.00 | 0.00 | 0.00 | 93 | 1013.9 |
| 20260905081155 | 76 | 156 | 0.0 | 0.0 | 0.00 | 0.00 | 0.00 | 93 | 1014.0 |
| 20260905080650 | 76 | 154 | 0.0 | 0.0 | 0.00 | 0.00 | 0.00 | 93 | 1013.9 |
| 20260905080150 | 75 | 149 | 0.0 | 0.0 | 0.00 | 0.00 | 0.00 | 93 | 1014.0 |
| 20260905075649 | 75 | 148 | 0.0 | 0.0 | 0.00 | 0.00 | 0.00 | 93 | 1013.9 |
| 20260905075148 | 75 | 151 | 0.0 | 0.0 | 0.00 | 0.00 | 0.00 | 93 | 1013.9 |
| 20260905074647 | 75 | 146 | 0.0 | 0.0 | 0.00 | 0.00 | 0.00 | 94 | 1013.8 |
| 20260905074143 | 75 | 137 | 0.0 | 0.0 | 0.00 | 0.00 | 0.00 | 94 | 1013.8 |
| 20260905073639 | 75 | 153 | 0.0 | 0.0 | 0.00 | 0.00 | 0.00 | 94 | 1014.0 |
| 20260905073134 | 75 | 152 | 0.0 | 0.0 | 0.00 | 0.00 | 0.00 | 94 | 1014.0 |
| 20260905072633 | 75 | 150 | 0.0 | 0.0 | 0.00 | 0.00 | 0.00 | 94 | 1014.1 |
| 20260905072129 | 75 | 155 | 0.0 | 0.0 | 0.00 | 0.00 | 0.00 | 95 | 1014.0 |
| 20260905071625 | 75 | 151 | 0.0 | 0.0 | 0.00 | 0.00 | 0.00 | 94 | 1014.2 |
| 20260905071120 | 75 | 151 | 0.0 | 0.0 | 0.00 | 0.00 | 0.00 | 94 | 1014.2 |
| 20260905070616 | 75 | 151 | 0.0 | 0.0 | 0.00 | 0.00 | 0.00 | 94 | 1014.3 |
| 20260905070112 | 75 | 151 | 0.0 | 0.0 | 0.00 | 0.00 | 0.00 | 94 | 1014.2 |
| 20260905065610 | 75 | 151 | 0.0 | 0.0 | 0.00 | 0.00 | 0.00 | 94 | 1014.2 |
| 20260905065104 | 75 | 151 | 0.0 | 0.0 | 0.00 | 0.00 | 0.00 | 94 | 1014.5 |
| 20260905064559 | 75 | 146 | 0.0 | 0.0 | 0.00 | 0.00 | 0.00 | 94 | 1014.4 |
| 20260905064054 | 75 | 149 | 0.0 | 0.0 | 0.00 | 0.00 | 0.00 | 93 | 1014.6 |
| 20260905063553 | 75 | 151 | 0.0 | 0.0 | 0.00 | 0.00 | 0.00 | 93 | 1014.7 |
| 20260905063049 | 75 | 152 | 0.0 | 0.0 | 0.00 | 0.00 | 0.00 | 92 | 1014.5 |
| 20260905062544 | 76 | 152 | 0.0 | 0.0 | 0.00 | 0.00 | 0.00 | 91 | 1014.4 |
| 20260905062039 | 76 | 150 | 0.0 | 0.0 | 0.00 | 0.00 | 0.00 | 91 | 1014.5 |
| 20260905061534 | 76 | 146 | 0.0 | 0.0 | 0.00 | 0.00 | 0.00 | 91 | 1014.6 |
| 20260905061033 | 77 | 140 | 0.0 | 0.0 | 0.00 | 0.00 | 0.00 | 91 | 1014.3 |
| 20260905060529 | 77 | 154 | 0.0 | 0.0 | 0.00 | 0.00 | 0.00 | 91 | 1014.3 |
| 20260905060025 | 77 | 152 | 0.0 | 0.0 | 0.00 | 0.00 | 0.00 | 91 | 1014.3 |
| 20260905055523 | 77 | 156 | 0.0 | 0.0 | 0.00 | 0.00 | 0.00 | 90 | 1014.4 |
| 20260905055018 | 77 | 149 | 0.0 | 0.0 | 0.00 | 0.00 | 0.00 | 90 | 1014.4 |
| 20260905054514 | 77 | 152 | 0.0 | 0.0 | 0.00 | 0.00 | 0.00 | 90 | 1014.4 |
| 20260905054009 | 77 | 155 | 0.0 | 0.0 | 0.00 | 0.00 | 0.00 | 90 | 1014.5 |
| 20260905053504 | 77 | 150 | 0.0 | 0.0 | 0.00 | 0.00 | 0.00 | 90 | 1014.4 |
| 20260905053000 | 77 | 152 | 0.0 | 2.0 | 0.00 | 0.00 | 0.00 | 90 | 1014.4 |
| 20260905052459 | 77 | 150 | 0.0 | 0.0 | 0.00 | 0.00 | 0.00 | 90 | 1014.5 |
| 20260905051958 | 77 | 139 | 0.0 | 0.0 | 0.00 | 0.00 | 0.00 | 90 | 1014.3 |
| 20260905051453 | 77 | 140 | 0.0 | 0.0 | 0.00 | 0.00 | 0.00 | 89 | 1014.2 |
| 20260905050951 | 78 | 128 | 0.0 | 0.0 | 0.00 | 0.00 | 0.00 | 89 | 1014.4 |
| 20260905050447 | 78 | 122 | 0.0 | 0.0 | 0.00 | 0.00 | 0.00 | 88 | 1014.2 |
| 20260905045942 | 78 | 156 | 0.0 | 0.0 | 0.00 | 0.00 | 0.00 | 89 | 1014.5 |
| 20260905045437 | 78 | 146 | 0.0 | 0.0 | 0.00 | 0.00 | 0.00 | 89 | 1014.5 |
| 20260905044932 | 78 | 145 | 0.0 | 0.0 | 0.00 | 0.00 | 0.00 | 89 | 1014.5 |
| 20260905044427 | 78 | 143 | 0.0 | 0.0 | 0.00 | 0.00 | 0.00 | 88 | 1014.3 |
| 20260905043926 | 78 | 139 | 0.0 | 0.0 | 0.00 | 0.00 | 0.00 | 88 | 1014.6 |
| 20260905043420 | 78 | 153 | 0.0 | 0.0 | 0.00 | 0.00 | 0.00 | 88 | 1014.4 |
| 20260905042921 | 78 | 142 | 0.0 | 0.0 | 0.00 | 0.00 | 0.00 | 88 | 1014.5 |
| 20260905042415 | 78 | 147 | 0.0 | 0.0 | 0.00 | 0.00 | 0.00 | 88 | 1014.5 |
| 20260905041910 | 78 | 148 | 0.0 | 0.0 | 0.00 | 0.00 | 0.00 | 88 | 1014.4 |
| 20260905041407 | 78 | 150 | 0.0 | 0.0 | 0.00 | 0.00 | 0.00 | 88 | 1014.2 |
| 20260905040901 | 78 | 145 | 0.0 | 0.0 | 0.00 | 0.00 | 0.00 | 88 | 1014.3 |
| 20260905040400 | 78 | 137 | 0.0 | 0.0 | 0.00 | 0.00 | 0.00 | 88 | 1014.3 |
| 20260905035900 | 78 | 149 | 0.0 | 0.0 | 0.00 | 0.00 | 0.00 | 88 | 1014.4 |
| 20260905035355 | 78 | 144 | 0.0 | 0.0 | 0.00 | 0.00 | 0.00 | 88 | 1014.3 |
| 20260905034852 | 78 | 143 | 0.0 | 0.0 | 0.00 | 0.00 | 0.00 | 88 | 1014.3 |
| 20260905034347 | 78 | 143 | 0.0 | 0.0 | 0.00 | 0.00 | 0.00 | 87 | 1014.5 |
| 20260905033845 | 79 | 144 | 0.0 | 0.0 | 0.00 | 0.00 | 0.00 | 87 | 1014.3 |
| 20260905033341 | 79 | 134 | 0.0 | 0.0 | 0.00 | 0.00 | 0.00 | 86 | 1014.3 |
| 20260905032840 | 79 | 131 | 2.0 | 3.0 | 0.00 | 0.00 | 0.00 | 85 | 1014.3 |
| 20260905032336 | 79 | 130 | 1.0 | 2.0 | 0.00 | 0.00 | 0.00 | 85 | 1014.4 |
| 20260905031831 | 80 | 126 | 2.0 | 2.0 | 0.00 | 0.00 | 0.00 | 84 | 1014.3 |
| 20260905031327 | 80 | 140 | 0.0 | 0.0 | 0.00 | 0.00 | 0.00 | 83 | 1014.4 |
| 20260905030822 | 80 | 142 | 0.0 | 0.0 | 0.00 | 0.00 | 0.00 | 83 | 1014.3 |
| 20260905030318 | 80 | 151 | 0.0 | 0.0 | 0.00 | 0.00 | 0.00 | 84 | 1014.0 |
| 20260905025816 | 79 | 153 | 0.0 | 0.0 | 0.00 | 0.00 | 0.00 | 86 | 1014.2 |
| 20260905025312 | 79 | 144 | 0.0 | 0.0 | 0.00 | 0.00 | 0.00 | 86 | 1014.2 |
| 20260905024808 | 79 | 146 | 0.0 | 0.0 | 0.00 | 0.00 | 0.00 | 86 | 1014.3 |
| 20260905024303 | 80 | 135 | 2.0 | 3.0 | 0.00 | 0.00 | 0.00 | 85 | 1014.2 |
| 20260905023759 | 80 | 132 | 3.0 | 3.0 | 0.00 | 0.00 | 0.00 | 85 | 1014.0 |
| 20260905023254 | 80 | 148 | 0.0 | 0.0 | 0.00 | 0.00 | 0.00 | 85 | 1013.8 |
| 20260905022753 | 80 | 145 | 2.0 | 3.0 | 0.00 | 0.00 | 0.00 | 84 | 1013.9 |
| 20260905022248 | 80 | 133 | 2.0 | 2.0 | 0.00 | 0.00 | 0.00 | 84 | 1013.9 |
| 20260905021743 | 80 | 148 | 0.0 | 0.0 | 0.00 | 0.00 | 0.00 | 84 | 1013.6 |
| 20260905021238 | 81 | 131 | 2.0 | 3.0 | 0.00 | 0.00 | 0.00 | 83 | 1013.8 |
| 20260905020737 | 81 | 138 | 3.0 | 3.0 | 0.00 | 0.00 | 0.00 | 83 | 1013.7 |
| 20260905020233 | 81 | 147 | 2.0 | 3.0 | 0.00 | 0.00 | 0.00 | 83 | 1013.6 |
| 20260905015731 | 81 | 137 | 2.0 | 3.0 | 0.00 | 0.00 | 0.00 | 83 | 1013.4 |
| 20260905015226 | 81 | 149 | 0.0 | 0.0 | 0.00 | 0.00 | 0.00 | 82 | 1013.7 |
| 20260905014725 | 81 | 140 | 2.0 | 3.0 | 0.00 | 0.00 | 0.00 | 82 | 1013.6 |
| 20260905014221 | 81 | 128 | 3.0 | 3.0 | 0.00 | 0.00 | 0.00 | 82 | 1013.6 |
| 20260905013716 | 81 | 140 | 3.0 | 3.0 | 0.00 | 0.00 | 0.00 | 81 | 1013.6 |
| 20260905013212 | 81 | 143 | 3.0 | 3.0 | 0.00 | 0.00 | 0.00 | 81 | 1013.4 |
| 20260905012708 | 81 | 121 | 3.0 | 3.0 | 0.00 | 0.00 | 0.00 | 81 | 1013.3 |
| 20260905012203 | 82 | 140 | 2.0 | 2.0 | 0.00 | 0.00 | 0.00 | 80 | 1013.3 |
| 20260905011700 | 82 | 125 | 0.0 | 0.0 | 0.00 | 0.00 | 0.00 | 79 | 1013.3 |
| 20260905011155 | 83 | 142 | 0.0 | 0.0 | 0.00 | 0.00 | 0.00 | 78 | 1013.2 |
| 20260905010650 | 83 | 136 | 0.0 | 0.0 | 0.00 | 0.00 | 0.00 | 77 | 1013.1 |
| 20260905010146 | 83 | 150 | 0.0 | 0.0 | 0.00 | 0.00 | 0.00 | 77 | 1013.1 |
| 20260905005642 | 84 | 152 | 4.0 | 5.0 | 0.00 | 0.00 | 0.00 | 76 | 1012.8 |
| 20260905005137 | 84 | 127 | 3.0 | 3.0 | 0.00 | 0.00 | 0.00 | 75 | 1013.0 |
| 20260905004637 | 84 | 143 | 3.0 | 5.0 | 0.00 | 0.00 | 0.00 | 75 | 1012.9 |
| 20260905004132 | 84 | 133 | 2.0 | 3.0 | 0.00 | 0.00 | 0.00 | 74 | 1012.7 |
| 20260905003628 | 85 | 147 | 3.0 | 5.0 | 0.00 | 0.00 | 0.00 | 73 | 1012.8 |
| 20260905003123 | 85 | 114 | 4.0 | 5.0 | 0.00 | 0.00 | 0.00 | 72 | 1012.8 |
| 20260905002619 | 86 | 127 | 2.0 | 3.0 | 0.00 | 0.00 | 0.00 | 71 | 1012.8 |
| 20260905002114 | 86 | 136 | 5.0 | 7.0 | 0.00 | 0.00 | 0.00 | 70 | 1012.6 |
| 20260905001608 | 86 | 98 | 3.0 | 5.0 | 0.00 | 0.00 | 0.00 | 69 | 1012.9 |
| 20260905001102 | 86 | 127 | 6.0 | 9.0 | 0.00 | 0.00 | 0.00 | 68 | 1012.8 |
| 20260905000557 | 86 | 172 | 5.0 | 7.0 | 0.00 | 0.00 | 0.00 | 68 | 1012.7 |
| 20260905000054 | 87 | 147 | 7.0 | 10.0 | 0.00 | 0.00 | 0.00 | 67 | 1012.6 |
| 20260904235548 | 87 | 129 | 4.0 | 5.0 | 0.00 | 0.00 | 0.00 | 66 | 1012.8 |
| 20260904235048 | 87 | 157 | 4.0 | 5.0 | 0.00 | 0.00 | 0.00 | 66 | 1012.8 |
| 20260904234542 | 87 | 119 | 6.0 | 9.0 | 0.00 | 0.00 | 0.00 | 64 | 1012.9 |
| 20260904234038 | 88 | 110 | 7.0 | 10.0 | 0.00 | 0.00 | 0.00 | 63 | 1012.6 |
| 20260904233533 | 88 | 116 | 9.0 | 12.0 | 0.00 | 0.00 | 0.00 | 62 | 1012.8 |
| 20260904233029 | 88 | 133 | 3.0 | 3.0 | 0.00 | 0.00 | 0.00 | 62 | 1012.7 |
| 20260904232525 | 88 | 157 | 4.0 | 7.0 | 0.00 | 0.00 | 0.00 | 63 | 1012.7 |
| 20260904232022 | 87 | 123 | 7.0 | 9.0 | 0.00 | 0.00 | 0.00 | 65 | 1013.1 |
| 20260904231517 | 87 | 137 | 2.0 | 3.0 | 0.00 | 0.00 | 0.00 | 66 | 1012.8 |
| 20260904231012 | 86 | 92 | 8.0 | 10.0 | 0.00 | 0.00 | 0.00 | 66 | 1012.8 |
| 20260904230511 | 87 | 146 | 8.0 | 10.0 | 0.00 | 0.00 | 0.00 | 66 | 1012.9 |
| 20260904230007 | 86 | 149 | 3.0 | 3.0 | 0.00 | 0.00 | 0.00 | 68 | 1012.9 |
| 20260904225504 | 86 | 119 | 7.0 | 9.0 | 0.00 | 0.00 | 0.00 | 68 | 1012.9 |
| 20260904225003 | 86 | 136 | 5.0 | 5.0 | 0.00 | 0.00 | 0.00 | 69 | 1012.8 |
| 20260904224459 | 86 | 146 | 5.0 | 7.0 | 0.00 | 0.00 | 0.00 | 69 | 1013.0 |
| 20260904223954 | 86 | 165 | 4.0 | 7.0 | 0.00 | 0.00 | 0.00 | 69 | 1013.1 |
| 20260904223453 | 86 | 116 | 5.0 | 7.0 | 0.00 | 0.00 | 0.00 | 67 | 1013.0 |
| 20260904222949 | 86 | 118 | 5.0 | 7.0 | 0.00 | 0.00 | 0.00 | 67 | 1012.9 |
| 20260904222444 | 87 | 114 | 6.0 | 12.0 | 0.00 | 0.00 | 0.00 | 66 | 1012.8 |
| 20260904221943 | 87 | 103 | 7.0 | 10.0 | 0.00 | 0.00 | 0.00 | 65 | 1012.8 |
| 20260904221438 | 88 | 130 | 5.0 | 7.0 | 0.00 | 0.00 | 0.00 | 66 | 1012.9 |
| 20260904220934 | 89 | 130 | 4.0 | 5.0 | 0.00 | 0.00 | 0.00 | 64 | 1013.0 |
| 20260904220433 | 89 | 155 | 5.0 | 7.0 | 0.00 | 0.00 | 0.00 | 63 | 1013.1 |
| 20260904215929 | 89 | 156 | 6.0 | 7.0 | 0.00 | 0.00 | 0.00 | 61 | 1012.9 |
| 20260904215424 | 89 | 161 | 6.0 | 7.0 | 0.00 | 0.00 | 0.00 | 61 | 1013.0 |
| 20260904214919 | 89 | 172 | 2.0 | 3.0 | 0.00 | 0.00 | 0.00 | 61 | 1013.0 |
| 20260904214415 | 90 | 214 | 3.0 | 3.0 | 0.00 | 0.00 | 0.00 | 60 | 1013.1 |
| 20260904213914 | 90 | 163 | 3.0 | 3.0 | 0.00 | 0.00 | 0.00 | 61 | 1013.2 |
| 20260904213408 | 90 | 162 | 6.0 | 9.0 | 0.00 | 0.00 | 0.00 | 61 | 1013.4 |
| 20260904212904 | 90 | 149 | 2.0 | 3.0 | 0.00 | 0.00 | 0.00 | 60 | 1013.3 |
| 20260904212358 | 90 | 138 | 7.0 | 9.0 | 0.00 | 0.00 | 0.00 | 60 | 1013.3 |
| 20260904211854 | 91 | 160 | 6.0 | 7.0 | 0.00 | 0.00 | 0.00 | 58 | 1013.5 |
| 20260904211349 | 92 | 115 | 7.0 | 10.0 | 0.00 | 0.00 | 0.00 | 57 | 1013.7 |
| 20260904210844 | 91 | 156 | 2.0 | 3.0 | 0.00 | 0.00 | 0.00 | 57 | 1013.6 |
| 20260904210343 | 92 | 210 | 6.0 | 7.0 | 0.00 | 0.00 | 0.00 | 56 | 1013.6 |
| 20260904205840 | 93 | 231 | 7.0 | 9.0 | 0.00 | 0.00 | 0.00 | 54 | 1013.4 |
| 20260904205335 | 93 | 157 | 4.0 | 5.0 | 0.00 | 0.00 | 0.00 | 53 | 1013.4 |
| 20260904204832 | 92 | 150 | 4.0 | 7.0 | 0.00 | 0.00 | 0.00 | 54 | 1013.5 |
| 20260904204327 | 92 | 140 | 2.0 | 3.0 | 0.00 | 0.00 | 0.00 | 55 | 1013.6 |
| 20260904203823 | 91 | 151 | 2.0 | 2.0 | 0.00 | 0.00 | 0.00 | 58 | 1013.7 |
| 20260904203319 | 90 | 117 | 3.0 | 3.0 | 0.00 | 0.00 | 0.00 | 58 | 1013.7 |
| 20260904202815 | 89 | 156 | 2.0 | 3.0 | 0.00 | 0.00 | 0.00 | 60 | 1013.7 |
| 20260904202311 | 89 | 155 | 2.0 | 3.0 | 0.00 | 0.00 | 0.00 | 61 | 1013.7 |
| 20260904201807 | 88 | 115 | 5.0 | 7.0 | 0.00 | 0.00 | 0.00 | 62 | 1014.0 |
| 20260904201301 | 88 | 133 | 6.0 | 7.0 | 0.00 | 0.00 | 0.00 | 64 | 1013.7 |
| 20260904200756 | 87 | 123 | 4.0 | 5.0 | 0.00 | 0.00 | 0.00 | 64 | 1013.8 |
| 20260904200250 | 87 | 151 | 2.0 | 3.0 | 0.00 | 0.00 | 0.00 | 65 | 1013.9 |
| 20260904195749 | 87 | 139 | 5.0 | 7.0 | 0.00 | 0.00 | 0.00 | 65 | 1014.0 |
| 20260904195248 | 87 | 163 | 9.0 | 10.0 | 0.00 | 0.00 | 0.00 | 67 | 1014.2 |
| 20260904194743 | 87 | 154 | 10.0 | 12.0 | 0.00 | 0.00 | 0.00 | 69 | 1014.3 |
| 20260904194242 | 86 | 112 | 6.0 | 9.0 | 0.00 | 0.00 | 0.00 | 70 | 1014.3 |
| 20260904193738 | 86 | 140 | 8.0 | 14.0 | 0.00 | 0.00 | 0.00 | 70 | 1014.3 |
| 20260904193233 | 86 | 114 | 11.0 | 12.0 | 0.00 | 0.00 | 0.00 | 70 | 1014.4 |
| 20260904192729 | 87 | 138 | 8.0 | 9.0 | 0.00 | 0.00 | 0.00 | 70 | 1014.4 |
| 20260904192224 | 88 | 117 | 14.0 | 17.0 | 0.00 | 0.00 | 0.00 | 68 | 1014.6 |
| 20260904191721 | 89 | 147 | 7.0 | 9.0 | 0.00 | 0.00 | 0.00 | 68 | 1014.4 |
| 20260904191216 | 90 | 134 | 7.0 | 10.0 | 0.00 | 0.00 | 0.00 | 66 | 1014.7 |
| 20260904190713 | 90 | 125 | 6.0 | 7.0 | 0.00 | 0.00 | 0.00 | 65 | 1014.5 |
| 20260904190209 | 90 | 151 | 3.0 | 5.0 | 0.00 | 0.00 | 0.00 | 63 | 1014.5 |
| 20260904185705 | 89 | 156 | 3.0 | 5.0 | 0.00 | 0.00 | 0.00 | 65 | 1014.7 |
| 20260904185159 | 89 | 126 | 5.0 | 7.0 | 0.00 | 0.00 | 0.00 | 65 | 1014.8 |
| 20260904184658 | 89 | 127 | 4.0 | 5.0 | 0.00 | 0.00 | 0.00 | 65 | 1015.0 |
| 20260904184154 | 90 | 153 | 5.0 | 7.0 | 0.00 | 0.00 | 0.00 | 63 | 1014.9 |
| 20260904183650 | 90 | 137 | 2.0 | 3.0 | 0.00 | 0.00 | 0.00 | 64 | 1015.1 |
| 20260904183149 | 91 | 138 | 3.0 | 3.0 | 0.00 | 0.00 | 0.00 | 62 | 1015.0 |
| 20260904182644 | 93 | 161 | 6.0 | 10.0 | 0.00 | 0.00 | 0.00 | 60 | 1015.0 |
| 20260904182139 | 92 | 173 | 3.0 | 3.0 | 0.00 | 0.00 | 0.00 | 60 | 1015.2 |
| 20260904181635 | 92 | 195 | 7.0 | 9.0 | 0.00 | 0.00 | 0.00 | 60 | 1015.1 |
| 20260904181130 | 92 | 123 | 3.0 | 5.0 | 0.00 | 0.00 | 0.00 | 61 | 1015.4 |
| 20260904180625 | 91 | 150 | 2.0 | 2.0 | 0.00 | 0.00 | 0.00 | 61 | 1015.1 |
| 20260904180120 | 91 | 126 | 6.0 | 9.0 | 0.00 | 0.00 | 0.00 | 62 | 1015.1 |
| 20260904175613 | 91 | 123 | 8.0 | 10.0 | 0.00 | 0.00 | 0.00 | 63 | 1015.1 |
| 20260904175112 | 91 | 160 | 5.0 | 5.0 | 0.00 | 0.00 | 0.00 | 63 | 1015.6 |
| 20260904174606 | 90 | 159 | 6.0 | 9.0 | 0.00 | 0.00 | 0.00 | 65 | 1015.3 |
| 20260904174103 | 91 | 208 | 4.0 | 5.0 | 0.00 | 0.00 | 0.00 | 64 | 1015.5 |
| 20260904173603 | 90 | 182 | 4.0 | 5.0 | 0.00 | 0.00 | 0.00 | 64 | 1015.5 |
| 20260904173058 | 91 | 148 | 2.0 | 3.0 | 0.00 | 0.00 | 0.00 | 66 | 1015.5 |
| 20260904172554 | 91 | 179 | 4.0 | 5.0 | 0.00 | 0.00 | 0.00 | 65 | 1015.8 |
| 20260904172053 | 91 | 193 | 4.0 | 5.0 | 0.00 | 0.00 | 0.00 | 67 | 1015.6 |
| 20260904171549 | 89 | 153 | 0.0 | 2.0 | 0.00 | 0.00 | 0.00 | 71 | 1015.7 |
| 20260904171044 | 89 | 230 | 4.0 | 7.0 | 0.00 | 0.00 | 0.00 | 69 | 1015.8 |
| 20260904170539 | 88 | 170 | 4.0 | 5.0 | 0.00 | 0.00 | 0.00 | 72 | 1015.8 |
| 20260904170036 | 88 | 170 | 7.0 | 10.0 | 0.00 | 0.00 | 0.00 | 72 | 1015.9 |
| 20260904165534 | 88 | 176 | 6.0 | 7.0 | 0.00 | 0.00 | 0.00 | 72 | 1015.9 |
| 20260904165034 | 88 | 160 | 6.0 | 7.0 | 0.00 | 0.00 | 0.00 | 73 | 1015.8 |
| 20260904164529 | 87 | 143 | 4.0 | 5.0 | 0.00 | 0.00 | 0.00 | 74 | 1015.7 |
| 20260904164025 | 87 | 132 | 5.0 | 5.0 | 0.00 | 0.00 | 0.00 | 74 | 1015.8 |
| 20260904163525 | 88 | 165 | 2.0 | 3.0 | 0.00 | 0.00 | 0.00 | 73 | 1015.7 |
| 20260904163020 | 88 | 142 | 4.0 | 7.0 | 0.00 | 0.00 | 0.00 | 74 | 1015.6 |
| 20260904162514 | 88 | 129 | 4.0 | 5.0 | 0.00 | 0.00 | 0.00 | 73 | 1015.5 |
| 20260904162010 | 88 | 145 | 4.0 | 5.0 | 0.00 | 0.00 | 0.00 | 72 | 1015.7 |
| 20260904161459 | 88 | 153 | 7.0 | 12.0 | 0.00 | 0.00 | 0.00 | 72 | 1015.6 |
| 20260904160954 | 88 | 178 | 4.0 | 5.0 | 0.00 | 0.00 | 0.00 | 72 | 1015.8 |
| 20260904160449 | 88 | 169 | 1.0 | 2.0 | 0.00 | 0.00 | 0.00 | 69 | 1015.8 |
| 20260904155944 | 89 | 212 | 5.0 | 7.0 | 0.00 | 0.00 | 0.00 | 69 | 1015.9 |
| 20260904155439 | 88 | 171 | 0.0 | 2.0 | 0.00 | 0.00 | 0.00 | 71 | 1015.8 |
| 20260904154938 | 88 | 161 | 3.0 | 5.0 | 0.00 | 0.00 | 0.00 | 73 | 1015.6 |
| 20260904154432 | 87 | 185 | 3.0 | 5.0 | 0.00 | 0.00 | 0.00 | 73 | 1015.5 |
| 20260904153928 | 87 | 168 | 1.0 | 2.0 | 0.00 | 0.00 | 0.00 | 74 | 1015.4 |
| 20260904153427 | 87 | 143 | 4.0 | 5.0 | 0.00 | 0.00 | 0.00 | 74 | 1015.6 |
| 20260904152925 | 86 | 170 | 2.0 | 3.0 | 0.00 | 0.00 | 0.00 | 74 | 1015.6 |
| 20260904152420 | 86 | 189 | 4.0 | 5.0 | 0.00 | 0.00 | 0.00 | 74 | 1015.5 |
| 20260904151919 | 86 | 183 | 4.0 | 7.0 | 0.00 | 0.00 | 0.00 | 75 | 1015.5 |
| 20260904151414 | 86 | 148 | 3.0 | 5.0 | 0.00 | 0.00 | 0.00 | 76 | 1015.5 |
| 20260904150909 | 86 | 130 | 4.0 | 5.0 | 0.00 | 0.00 | 0.00 | 76 | 1015.4 |
| 20260904150404 | 86 | 165 | 2.0 | 3.0 | 0.00 | 0.00 | 0.00 | 78 | 1015.4 |
| 20260904145901 | 86 | 185 | 6.0 | 7.0 | 0.00 | 0.00 | 0.00 | 77 | 1015.4 |
| 20260904145358 | 86 | 131 | 4.0 | 5.0 | 0.00 | 0.00 | 0.00 | 77 | 1015.4 |
| 20260904144854 | 86 | 160 | 3.0 | 3.0 | 0.00 | 0.00 | 0.00 | 77 | 1015.4 |
| 20260904144349 | 86 | 213 | 6.0 | 7.0 | 0.00 | 0.00 | 0.00 | 77 | 1015.6 |
| 20260904143844 | 86 | 164 | 2.0 | 3.0 | 0.00 | 0.00 | 0.00 | 78 | 1015.2 |
| 20260904143341 | 85 | 171 | 4.0 | 7.0 | 0.00 | 0.00 | 0.00 | 79 | 1015.1 |
| 20260904142837 | 85 | 102 | 3.0 | 3.0 | 0.00 | 0.00 | 0.00 | 79 | 1015.4 |
| 20260904142333 | 86 | 161 | 3.0 | 5.0 | 0.00 | 0.00 | 0.00 | 78 | 1015.2 |
| 20260904141827 | 87 | 167 | 4.0 | 5.0 | 0.00 | 0.00 | 0.00 | 75 | 1015.4 |
| 20260904141322 | 87 | 186 | 4.0 | 5.0 | 0.00 | 0.00 | 0.00 | 76 | 1015.3 |
| 20260904140819 | 86 | 153 | 5.0 | 9.0 | 0.00 | 0.00 | 0.00 | 77 | 1015.3 |
| 20260904140314 | 86 | 137 | 4.0 | 5.0 | 0.00 | 0.00 | 0.00 | 78 | 1015.1 |
| 20260904135813 | 86 | 151 | 2.0 | 3.0 | 0.00 | 0.00 | 0.00 | 79 | 1015.1 |
| 20260904135308 | 84 | 146 | 4.0 | 5.0 | 0.00 | 0.00 | 0.00 | 82 | 1014.9 |
| 20260904134804 | 83 | 176 | 2.0 | 3.0 | 0.00 | 0.00 | 0.00 | 85 | 1015.1 |
| 20260904134303 | 82 | 149 | 0.0 | 0.0 | 0.00 | 0.00 | 0.00 | 86 | 1015.1 |
| 20260904133758 | 82 | 150 | 0.0 | 0.0 | 0.00 | 0.00 | 0.00 | 87 | 1014.9 |
| 20260904133254 | 81 | 159 | 2.0 | 3.0 | 0.00 | 0.00 | 0.00 | 87 | 1015.0 |
| 20260904132753 | 81 | 154 | 0.0 | 0.0 | 0.00 | 0.00 | 0.00 | 89 | 1015.0 |
| 20260904132249 | 81 | 176 | 0.0 | 0.0 | 0.00 | 0.00 | 0.00 | 89 | 1014.8 |
| 20260904131748 | 80 | 160 | 0.0 | 0.0 | 0.00 | 0.00 | 0.00 | 90 | 1014.8 |
| 20260904131244 | 80 | 163 | 0.0 | 0.0 | 0.00 | 0.00 | 0.00 | 91 | 1014.9 |
| 20260904130744 | 79 | 160 | 0.0 | 0.0 | 0.00 | 0.00 | 0.00 | 92 | 1014.8 |
| 20260904130243 | 79 | 160 | 0.0 | 0.0 | 0.00 | 0.00 | 0.00 | 92 | 1014.6 |
| 20260904125739 | 79 | 160 | 0.0 | 0.0 | 0.00 | 0.00 | 0.00 | 93 | 1014.6 |
| 20260904125235 | 79 | 163 | 0.0 | 0.0 | 0.00 | 0.00 | 0.00 | 93 | 1014.7 |
| 20260904124735 | 78 | 163 | 0.0 | 0.0 | 0.00 | 0.00 | 0.00 | 93 | 1014.5 |
| 20260904124231 | 78 | 163 | 0.0 | 0.0 | 0.00 | 0.00 | 0.00 | 93 | 1014.6 |
| 20260904123726 | 78 | 163 | 0.0 | 0.0 | 0.00 | 0.00 | 0.00 | 93 | 1014.5 |
| 20260904123221 | 78 | 163 | 0.0 | 0.0 | 0.00 | 0.00 | 0.00 | 93 | 1014.4 |
| 20260904122722 | 78 | 163 | 0.0 | 0.0 | 0.00 | 0.00 | 0.00 | 93 | 1014.4 |
| 20260904122216 | 78 | 163 | 0.0 | 0.0 | 0.00 | 0.00 | 0.00 | 93 | 1014.5 |
| 20260904121712 | 78 | 163 | 0.0 | 0.0 | 0.00 | 0.00 | 0.00 | 93 | 1014.3 |
| 20260904121207 | 79 | 149 | 0.0 | 0.0 | 0.00 | 0.00 | 0.00 | 93 | 1014.3 |
| 20260904120703 | 79 | 148 | 0.0 | 0.0 | 0.00 | 0.00 | 0.00 | 93 | 1014.2 |
| 20260904120154 | 79 | 149 | 0.0 | 0.0 | 0.00 | 0.00 | 0.00 | 92 | 1014.2 |
| 20260904115649 | 79 | 167 | 0.0 | 0.0 | 0.00 | 0.00 | 0.00 | 92 | 1014.0 |
| 20260904115144 | 79 | 159 | 0.0 | 0.0 | 0.00 | 0.00 | 0.00 | 92 | 1014.2 |